Theta_e
342 342 340 339 339 342 334 338 336 338 342 344 346 345 345 344 344 343 340 339 338 338 338 338 340 340 344 343 343 339 343 341 338 338 337 339 336 341 341 341 341 340 342
342 343 341 341 340 342 342 336 335 336 336 338 340 339 340 339 338 338 339 337 338 340 341 339 339 340 340 340 341 341 340 337 337 337 338 338 340 340 340 339 341 337 341
342 343 342 341 342 343 340 340 340 337 336 337 337 336 336 336 338 338 337 338 339 340 341 341 341 340 339 340 339 337 334 335 336 337 339 341 341 340 340 339 340 333 339
339 339 339 342 341 341 340 341 341 332 328 330 334 337 338 339 339 339 340 340 341 340 341 341 339 331 332 335 334 334 333 335 338 336 337 340 341 339 340 341 340 338 341
340 339 342 340 339 340 342 342 341 332 331 334 332 330 334 337 333 337 340 339 340 338 336 334 332 338 334 333 336 337 338 341 339 333 330 335 340 340 340 341 341 341 341
338 337 341 343 341 334 337 340 337 334 333 334 338 339 335 332 329 330 328 334 329 328 329 331 335 333 333 337 340 340 342 342 343 341 341 334 333 336 339 338 340 341 337
335 336 344 344 344 342 342 341 336 333 335 341 338 341 343 344 339 342 341 335 338 336 335 337 337 337 336 337 339 339 339 340 340 340 338 335 330 333 339 335 335 335 339
340 342 344 342 342 342 340 342 341 335 340 340 341 342 341 339 339 342 339 339 338 338 339 338 338 337 337 338 339 340 340 340 338 340 340 337 334 333 333 334 336 338 337
340 341 343 344 342 339 339 343 343 336 336 342 344 344 341 340 337 331 333 340 341 340 340 338 338 338 339 340 339 340 340 341 338 341 340 338 338 336 339 339 335 338 339
340 339 340 342 344 342 342 343 341 337 340 343 341 337 337 329 326 326 330 335 340 338 337 338 339 339 340 340 342 341 342 342 337 339 338 338 338 338 338 338 336 334 334
344 343 341 340 342 341 341 340 341 338 339 341 334 334 333 335 333 331 328 330 336 338 337 337 338 339 341 340 339 342 341 340 338 338 339 340 340 339 340 341 340 339 337
343 342 341 340 342 341 341 341 341 340 340 335 328 336 339 338 336 335 334 332 330 331 337 337 338 337 338 340 341 339 341 340 338 336 337 338 342 341 339 341 341 340 338
344 342 341 341 341 341 340 341 341 340 335 329 337 340 341 340 338 339 340 341 341 340 339 338 340 340 339 339 341 339 338 337 338 335 340 341 343 342 340 340 339 337 334
343 343 341 341 340 340 338 336 338 333 331 338 342 343 342 340 341 343 343 340 337 337 337 337 339 339 340 338 340 343 340 338 337 336 336 337 343 341 338 340 337 335 334
344 341 340 339 339 339 334 337 338 333 336 344 343 341 341 342 343 342 341 341 340 341 341 342 340 341 341 341 342 343 340 338 335 336 336 339 342 338 339 339 334 333 330
343 342 343 340 339 337 338 340 338 335 341 343 341 339 341 343 342 342 340 342 343 344 345 342 342 339 341 342 341 341 338 337 335 336 335 341 340 338 338 333 331 330 330
343 343 343 341 339 336 337 339 339 338 338 341 340 342 342 341 338 343 346 344 345 345 344 342 340 339 339 339 341 340 340 339 341 340 342 344 340 336 333 332 333 334 331
343 344 344 341 339 339 336 339 339 341 338 340 343 344 344 343 342 343 343 347 345 344 343 342 343 340 338 340 338 342 342 340 340 342 342 337 341 336 333 335 337 338 337
343 343 344 342 338 337 337 340 340 342 344 342 342 344 344 340 342 343 346 346 345 343 341 342 344 343 343 342 341 341 342 341 341 340 339 342 341 341 335 336 340 338 340
343 343 343 342 337 337 338 339 341 343 345 340 343 344 344 338 341 342 343 345 343 344 343 343 344 340 340 341 340 340 341 342 340 341 340 340 338 338 338 339 342 339 339
343 343 343 342 342 333 335 337 342 342 344 345 344 345 343 342 339 338 340 342 342 341 343 345 343 339 341 342 339 339 340 338 342 343 340 338 338 339 340 339 340 340 340
342 342 343 342 343 343 335 333 340 342 342 341 345 344 343 345 343 344 343 341 339 339 345 345 345 341 339 338 342 337 335 336 338 343 342 339 341 342 341 342 344 340 339
341 342 343 342 342 342 338 332 340 342 341 342 344 343 343 345 344 343 343 344 344 344 346 346 345 343 341 341 342 341 340 335 342 342 343 341 343 343 344 341 341 339 340
341 341 342 342 342 341 330 335 340 339 339 342 342 343 345 344 344 345 344 348 346 343 346 342 344 345 342 341 343 341 344 339 340 343 343 342 343 343 342 340 340 340 342
341 340 341 341 342 342 333 333 336 339 336 342 341 343 343 344 345 346 343 348 345 346 345 344 342 343 345 344 345 345 343 340 340 342 343 342 343 343 342 342 340 339 341
341 341 341 342 341 342 338 335 335 335 336 341 339 343 344 343 342 346 345 342 344 343 340 346 343 343 342 345 343 347 345 342 343 344 343 343 343 343 343 342 342 342 341
Wind_Speed
21 18 17 16 12 11 12 13 14 14 14 14 14 14 14 14 11 10 8 7 6 6 6 7 6 6 9 9 7 8 6 4 1 1 3 7 9 5 5 6 7 8 9
23 19 16 15 14 11 12 13 14 13 13 14 14 13 13 11 8 7 6 6 5 5 5 6 8 9 8 8 8 6 4 2 3 3 4 6 7 6 5 7 8 10 10
23 21 19 17 14 12 11 12 13 13 11 11 11 11 11 9 8 8 7 6 6 5 6 8 9 9 9 9 9 7 6 6 4 3 4 3 5 6 6 8 12 19 10
21 20 18 16 14 13 12 12 12 11 9 8 9 10 10 9 9 8 8 8 8 8 7 8 7 8 9 10 10 10 9 7 7 4 3 3 4 6 6 7 11 15 11
20 18 17 15 13 12 12 12 11 10 7 7 8 7 8 8 9 9 9 8 8 7 8 7 9 8 8 9 9 10 9 6 6 6 4 3 3 4 5 7 10 12 12
18 16 14 13 13 12 12 10 10 8 6 6 8 8 9 10 10 11 10 9 9 10 10 10 9 8 8 9 10 9 8 4 4 5 3 4 4 3 6 8 8 11 12
17 16 14 13 13 11 10 9 9 8 8 7 9 9 9 9 9 10 9 9 9 9 10 9 8 7 6 7 7 7 6 6 7 6 4 3 4 5 5 6 7 9 9
16 16 13 12 12 11 10 8 8 9 8 8 9 8 9 10 9 9 8 8 8 8 7 7 6 6 5 6 7 5 4 7 6 5 5 3 2 3 4 6 7 8 9
14 13 13 11 10 9 7 6 8 11 9 9 11 10 9 8 8 9 8 8 7 7 6 6 5 5 5 5 5 6 8 8 6 4 4 3 2 3 5 5 7 8 9
14 12 11 11 10 8 8 8 12 13 10 9 9 10 10 8 8 8 8 8 7 7 5 5 5 6 6 6 7 7 10 7 4 4 4 2 1 3 5 6 7 8 10
11 11 11 10 9 9 7 9 14 14 10 9 10 11 10 9 8 8 7 7 6 5 5 4 4 4 8 6 10 10 10 8 8 9 3 2 2 3 5 7 8 8 9
12 10 10 9 8 7 7 10 15 13 11 9 9 11 10 10 8 7 6 5 5 4 3 1 4 6 7 10 9 16 11 10 9 12 6 4 5 5 6 7 8 8 9
12 11 10 10 9 9 10 11 13 14 11 11 12 11 9 8 8 8 7 5 3 2 1 3 1 4 9 11 7 12 14 13 12 11 7 6 7 7 7 8 7 8 10
13 9 10 10 10 12 13 12 15 11 11 14 11 11 9 9 8 6 4 5 6 7 1 4 6 4 2 3 9 11 15 17 15 12 7 7 8 8 6 6 6 8 10
13 13 11 10 12 14 15 15 14 11 13 12 10 9 9 7 4 4 4 4 2 1 1 3 7 3 4 4 7 8 11 18 18 14 10 8 8 7 6 6 5 7 10
13 13 10 11 14 16 15 14 15 12 13 10 9 9 8 5 4 3 2 2 5 4 3 1 8 1 3 2 2 5 8 13 16 14 11 9 7 7 6 6 4 5 7
14 14 12 12 13 18 15 14 15 12 12 11 10 9 8 4 4 3 3 2 4 4 4 1 5 5 8 3 4 4 8 11 12 11 9 8 4 6 7 6 3 1 4
15 16 14 13 13 17 17 16 14 12 11 11 11 7 7 5 4 4 3 2 3 2 4 3 2 3 9 4 2 4 4 7 9 9 7 6 8 6 7 5 3 0 4
14 17 17 14 15 17 18 15 13 12 13 14 13 8 7 8 6 6 3 2 3 3 2 2 2 3 1 2 3 2 2 4 6 8 5 7 8 10 8 7 4 1 5
15 16 17 15 16 17 18 16 13 13 14 16 12 7 5 8 8 4 5 7 7 6 4 3 4 5 5 4 3 4 3 4 5 6 5 7 11 13 11 9 6 2 4
17 19 19 18 19 19 20 17 15 14 13 14 10 7 7 6 6 6 5 8 9 9 7 5 5 8 5 3 1 2 4 5 7 8 6 6 6 9 11 10 6 4 3
17 20 21 22 21 20 19 18 14 14 13 11 10 8 9 7 5 5 8 9 10 10 8 6 5 6 5 4 3 2 1 3 5 6 5 7 9 7 8 8 9 7 3
18 21 23 24 22 21 18 19 17 14 17 13 11 8 9 9 7 7 7 4 5 9 8 7 5 5 5 3 1 3 3 1 5 5 5 5 10 8 6 4 6 6 4
18 18 21 23 23 19 19 21 18 14 14 11 10 7 9 8 7 7 7 5 5 6 5 5 4 3 1 1 0 1 2 2 3 3 5 6 7 6 6 9 5 4 3
17 18 19 21 23 22 21 21 19 17 15 13 10 11 11 10 10 8 7 8 5 5 5 4 4 3 4 2 2 3 1 4 5 3 5 9 8 8 9 8 7 4 2
18 17 19 21 23 24 23 23 22 19 17 15 14 10 12 10 11 10 9 8 7 6 5 5 5 4 5 5 3 0 0 2 3 4 4 9 8 9 8 8 4 2 2
Wind_Direction
163 157 158 156 156 140 138 134 134 138 139 140 141 142 145 151 152 151 152 144 152 156 173 170 165 156 165 182 200 198 234 237 178 159 151 169 183 185 193 177 191 180 163
155 155 158 160 161 149 145 140 138 143 147 148 152 153 149 149 157 166 183 179 159 170 160 161 154 161 175 177 184 191 180 152 126 138 138 178 196 209 206 192 184 186 173
156 155 154 157 166 157 148 149 147 145 150 159 164 168 168 170 169 169 172 171 176 169 156 140 152 154 160 162 168 164 158 147 137 126 136 139 163 162 160 174 168 199 193
156 156 156 156 166 163 154 156 153 155 157 162 169 173 169 166 176 172 167 162 158 155 155 155 150 150 151 154 157 153 155 144 116 137 138 145 136 138 140 158 163 190 201
161 160 160 163 168 165 161 160 159 166 158 152 146 146 160 168 170 159 155 154 153 156 163 158 140 147 144 151 151 151 150 168 144 109 138 138 134 149 139 153 167 180 189
163 164 165 169 167 170 167 169 172 173 164 151 147 138 132 132 139 139 153 160 152 148 147 149 146 140 145 150 152 153 162 167 161 137 116 124 172 187 162 160 167 177 177
160 159 162 165 160 158 158 164 172 178 163 149 147 145 141 141 141 138 140 143 145 142 143 147 144 151 160 165 168 164 159 156 141 149 111 98 162 191 195 183 180 184 187
158 155 160 163 160 166 170 175 177 182 165 155 158 141 137 143 147 146 142 145 147 142 149 142 140 144 157 183 182 166 157 162 149 144 110 95 136 182 190 206 210 204 198
157 163 161 163 170 175 188 189 177 181 151 146 139 140 154 150 155 146 159 153 143 145 142 134 140 156 160 174 171 171 173 187 178 158 128 109 144 179 190 206 211 214 216
158 172 179 173 188 190 175 174 177 168 152 150 135 151 140 146 146 145 149 156 147 137 142 150 170 179 180 196 179 188 185 194 186 146 137 121 116 229 229 221 232 233 228
175 191 191 191 192 172 163 171 180 169 153 146 150 154 156 144 136 134 137 154 156 146 164 160 198 213 211 222 221 194 192 184 198 198 199 257 270 280 251 237 231 239 243
187 184 191 187 166 175 171 181 178 168 155 147 143 143 147 136 134 123 118 115 124 139 138 229 248 254 242 239 262 204 195 205 185 202 236 261 266 274 266 248 244 248 255
185 184 179 172 172 179 180 170 167 162 157 154 150 148 147 131 124 116 120 116 120 104 127 25 40 245 252 236 216 211 222 216 201 188 218 254 266 259 258 245 243 253 258
189 183 174 175 172 176 179 161 158 155 153 149 155 155 147 132 118 112 121 92 89 84 107 242 337 287 354 236 236 221 232 220 205 201 220 277 267 260 238 227 238 258 268
188 176 170 175 166 173 167 166 166 161 156 155 169 171 156 140 126 108 104 74 80 50 45 352 343 334 292 313 285 241 231 213 204 215 239 268 264 242 221 212 233 269 274
190 177 178 173 171 169 165 168 171 166 166 162 174 187 175 163 159 123 130 53 36 50 30 87 34 181 294 354 296 224 211 199 210 234 244 252 255 229 207 205 223 273 287
200 193 182 175 184 178 172 172 173 175 180 180 181 182 191 186 193 119 116 90 55 51 57 209 89 34 206 207 182 184 197 207 222 225 234 233 234 228 213 199 203 280 332
208 202 190 183 181 180 181 176 180 176 188 192 188 185 197 198 177 155 123 91 37 79 56 86 102 26 162 150 143 177 168 200 206 223 226 246 230 228 219 199 202 120 5
212 204 196 187 180 181 179 183 185 191 191 189 192 204 225 209 191 201 204 287 337 359 25 4 351 359 53 224 239 213 195 164 198 220 232 237 240 222 218 211 203 137 8
221 212 203 200 184 184 183 182 195 196 190 189 200 188 201 209 205 214 224 252 283 306 311 326 302 315 321 298 259 221 240 227 224 241 242 236 236 228 225 211 219 247 333
219 214 206 203 192 189 189 191 193 205 197 193 189 196 207 206 214 230 249 255 277 293 313 276 307 315 327 335 323 215 213 247 240 249 242 232 197 212 212 209 210 248 291
215 212 210 204 201 202 202 202 199 206 203 208 209 211 208 210 217 239 254 258 265 282 294 284 305 317 323 323 330 357 336 246 226 232 222 205 188 191 195 202 223 230 248
216 212 209 203 202 208 208 202 201 204 210 211 216 217 209 225 244 244 247 246 274 278 279 282 290 295 306 347 230 271 289 288 158 171 175 184 198 195 206 198 191 212 221
219 214 208 205 204 204 204 199 203 207 207 210 220 234 222 229 246 252 240 242 286 277 272 280 261 276 249 221 135 306 330 228 182 185 189 179 198 192 201 189 186 175 202
217 214 211 205 207 208 207 206 212 220 213 216 224 227 236 243 248 260 247 255 275 295 243 259 236 239 242 221 315 16 57 178 193 194 176 183 189 189 191 205 213 194 227
220 218 216 210 206 207 211 215 217 222 220 222 229 238 243 243 236 251 262 261 265 298 234 228 220 241 238 231 263 293 221 156 208 201 213 202 206 207 212 218 227 207 242